FNF222 ELLX-EFTP

Flight info

Callsign FNF222
Flight time 2h 8m
Altitude 41000
Route ARCKY T853 IBESA DCT MOBSA DCT AMICH P605 GESKA N851 KUBIS DCT BEDOS N851 PELUP Z226 NILUG DCT UXETI DCT NEBAB
Aircraft LJ35/M-SGHRWXY/SB1

Departure

Time 2026-05-07 16:17
Airport Luxembourg-Findel International Airport (ELLX)

Arrival

Time 2026-05-07 18:26
Airport Tampere-Pirkkala Airport (EFTP)
Time Latitude Longitude Altitude Speed Heading
2026-05-07 16:02 49.63055 6.21267 1227 ft 0 kts 63°
2026-05-07 16:13 49.63056 6.21270 1227 ft 1 kts 63°
2026-05-07 16:13 49.63062 6.21290 1227 ft 0 kts 63°
2026-05-07 16:13 49.63065 6.21297 1227 ft 0 kts 65°
2026-05-07 16:13 49.63046 6.21326 1227 ft 8 kts 147°
2026-05-07 16:14 49.62975 6.21318 1225 ft 14 kts 244°
2026-05-07 16:14 49.62932 6.21181 1227 ft 15 kts 244°
2026-05-07 16:14 49.62882 6.21017 1227 ft 19 kts 244°
2026-05-07 16:14 49.62823 6.20827 1233 ft 19 kts 244°
2026-05-07 16:15 49.62733 6.20661 1233 ft 22 kts 216°
2026-05-07 16:15 49.62617 6.20499 1231 ft 17 kts 229°
2026-05-07 16:15 49.62560 6.20460 1228 ft 9 kts 162°
2026-05-07 16:15 49.62522 6.20491 1228 ft 3 kts 150°
2026-05-07 16:16 49.62464 6.20543 1228 ft 14 kts 150°
2026-05-07 16:16 49.62435 6.20591 1226 ft 0 kts 59°
2026-05-07 16:16 49.62442 6.20608 1227 ft 23 kts 59°
2026-05-07 16:17 49.62755 6.21452 1220 ft 153 kts 60°
2026-05-07 16:17 49.63320 6.23062 1993 ft 169 kts 61°
2026-05-07 16:17 49.63864 6.24678 2836 ft 175 kts 59°
2026-05-07 16:17 49.64511 6.26336 4380 ft 191 kts 57°
2026-05-07 16:18 49.65011 6.27566 5390 ft 207 kts 56°
2026-05-07 16:18 49.65818 6.29531 7033 ft 224 kts 57°
2026-05-07 16:18 49.66616 6.31637 8829 ft 231 kts 60°
2026-05-07 16:18 49.67393 6.33830 10598 ft 240 kts 60°
2026-05-07 16:19 49.68237 6.36209 11771 ft 268 kts 59°
2026-05-07 16:19 49.69588 6.38332 13174 ft 283 kts 30°
2026-05-07 16:19 49.71481 6.39387 14346 ft 305 kts
2026-05-07 16:19 49.73635 6.39108 15543 ft 319 kts 341°
2026-05-07 16:20 49.75600 6.37451 16875 ft 328 kts 318°
2026-05-07 16:20 49.77020 6.34685 18315 ft 333 kts 297°
2026-05-07 16:20 49.77977 6.31412 19666 ft 336 kts 291°
2026-05-07 16:20 49.78901 6.28082 21062 ft 337 kts 293°
2026-05-07 16:21 49.79957 6.24869 22263 ft 346 kts 298°
2026-05-07 16:21 49.81389 6.21732 23400 ft 356 kts 307°
2026-05-07 16:21 49.83035 6.18813 24426 ft 362 kts 310°
2026-05-07 16:21 49.84723 6.15906 25447 ft 364 kts 310°
2026-05-07 16:22 49.86642 6.13318 26485 ft 369 kts 323°
2026-05-07 16:22 49.88901 6.11420 27540 ft 371 kts 336°
2026-05-07 16:22 49.91323 6.10033 28647 ft 370 kts 338°
2026-05-07 16:22 49.93752 6.08641 29530 ft 375 kts 338°
2026-05-07 16:23 49.96204 6.07218 30366 ft 378 kts 338°
2026-05-07 16:23 49.98681 6.05798 31125 ft 380 kts 338°
2026-05-07 16:23 50.01161 6.04384 31894 ft 380 kts 338°
2026-05-07 16:23 50.03644 6.02965 32672 ft 381 kts 338°
2026-05-07 16:24 50.06225 6.02009 33427 ft 384 kts 351°
2026-05-07 16:24 50.08901 6.01899 34155 ft 386 kts
2026-05-07 16:24 50.11548 6.02641 34763 ft 389 kts 14°
2026-05-07 16:24 50.14100 6.04059 35386 ft 389 kts 19°
2026-05-07 16:25 50.16633 6.05531 36010 ft 388 kts 18°
2026-05-07 16:25 50.19175 6.06992 36612 ft 387 kts 18°
2026-05-07 16:25 50.21687 6.08443 37282 ft 385 kts 19°
2026-05-07 16:25 50.24184 6.09893 37934 ft 382 kts 19°
2026-05-07 16:26 50.26673 6.11339 38570 ft 381 kts 19°
2026-05-07 16:26 50.29149 6.12795 39056 ft 380 kts 21°
2026-05-07 16:26 50.31464 6.14790 39488 ft 381 kts 32°
2026-05-07 16:26 50.33679 6.17090 39935 ft 379 kts 32°
2026-05-07 16:27 50.35832 6.19289 40353 ft 379 kts 32°
2026-05-07 16:27 50.38110 6.21612 40518 ft 388 kts 32°
2026-05-07 16:27 50.40352 6.23920 40698 ft 394 kts 32°
2026-05-07 16:27 50.42660 6.26306 40910 ft 400 kts 32°
2026-05-07 16:28 50.45004 6.28723 40992 ft 409 kts 32°
2026-05-07 16:28 50.49760 6.33661 40996 ft 430 kts 36°
2026-05-07 16:29 50.54633 6.39444 41001 ft 448 kts 36°
2026-05-07 16:29 50.59721 6.45438 41005 ft 464 kts 36°
2026-05-07 16:30 50.64893 6.51585 41005 ft 463 kts 36°
2026-05-07 16:30 50.70014 6.57672 41008 ft 460 kts 36°
2026-05-07 16:31 50.75103 6.63746 41008 ft 458 kts 36°
2026-05-07 16:31 50.80178 6.69816 41008 ft 459 kts 36°
2026-05-07 16:32 50.85303 6.75942 41008 ft 464 kts 36°
2026-05-07 16:32 50.90453 6.82166 41006 ft 467 kts 37°
2026-05-07 16:33 50.95642 6.88420 41005 ft 470 kts 37°
2026-05-07 16:33 51.00842 6.94714 41007 ft 471 kts 37°
2026-05-07 16:34 51.06051 7.01036 41007 ft 472 kts 37°
2026-05-07 16:34 51.11230 7.07338 41008 ft 472 kts 37°
2026-05-07 16:35 51.16445 7.13704 41007 ft 472 kts 37°
2026-05-07 16:35 51.21659 7.20087 41010 ft 473 kts 37°
2026-05-07 16:36 51.26870 7.26486 41011 ft 473 kts 37°
2026-05-07 16:36 51.32086 7.32908 41026 ft 473 kts 37°
2026-05-07 16:37 51.37294 7.39340 41031 ft 473 kts 37°
2026-05-07 16:37 51.42504 7.45794 41030 ft 473 kts 37°
2026-05-07 16:38 51.47710 7.52262 41036 ft 474 kts 37°
2026-05-07 16:38 51.52916 7.58748 41034 ft 474 kts 37°
2026-05-07 16:39 51.58115 7.65247 41036 ft 474 kts 37°
2026-05-07 16:39 51.63315 7.71764 41033 ft 474 kts 37°
2026-05-07 16:40 51.68511 7.78297 41035 ft 474 kts 37°
2026-05-07 16:40 51.73707 7.84850 41062 ft 473 kts 37°
2026-05-07 16:40 51.76286 7.88109 41328 ft 467 kts 38°
2026-05-07 16:41 51.78831 7.91331 41574 ft 464 kts 37°
2026-05-07 16:41 51.81371 7.94553 41809 ft 465 kts 38°
2026-05-07 16:41 51.83923 7.97792 42053 ft 466 kts 38°
2026-05-07 16:41 51.86473 8.01032 42291 ft 467 kts 38°
2026-05-07 16:42 51.89029 8.04288 42525 ft 468 kts 38°
2026-05-07 16:42 51.91589 8.07552 42759 ft 469 kts 38°
2026-05-07 16:42 51.94149 8.10822 42986 ft 469 kts 38°
2026-05-07 16:43 51.99312 8.17428 43075 ft 478 kts 38°
2026-05-07 16:43 52.04564 8.24173 43086 ft 484 kts 38°
2026-05-07 16:44 52.09773 8.30882 43084 ft 476 kts 38°
2026-05-07 16:44 52.14936 8.37548 43082 ft 473 kts 38°
2026-05-07 16:45 52.20085 8.44222 43079 ft 472 kts 38°
2026-05-07 16:45 52.25248 8.50829 43078 ft 472 kts 37°
2026-05-07 16:46 52.30423 8.57408 43083 ft 471 kts 38°
2026-05-07 16:46 52.35572 8.64028 43084 ft 471 kts 37°
2026-05-07 16:47 52.40727 8.70637 43089 ft 471 kts 37°
2026-05-07 16:47 52.45879 8.77289 43089 ft 471 kts 37°
2026-05-07 16:48 52.51027 8.83940 43087 ft 471 kts 37°
2026-05-07 16:48 52.56170 8.90614 43085 ft 471 kts 38°
2026-05-07 16:49 52.61316 8.97308 43088 ft 472 kts 38°
2026-05-07 16:49 52.66461 9.04024 43088 ft 472 kts 38°
2026-05-07 16:50 52.71600 9.10750 43087 ft 472 kts 38°
2026-05-07 16:50 52.76749 9.17508 43086 ft 476 kts 38°
2026-05-07 16:51 52.81966 9.24382 43084 ft 482 kts 38°
2026-05-07 16:51 52.87214 9.31317 43086 ft 484 kts 38°
2026-05-07 16:52 52.92481 9.38301 43083 ft 486 kts 38°
2026-05-07 16:52 52.97703 9.45248 43175 ft 480 kts 38°
2026-05-07 16:52 53.00303 9.48713 43423 ft 478 kts 38°
2026-05-07 16:53 53.02888 9.52165 43705 ft 477 kts 38°
2026-05-07 16:53 53.05467 9.55615 43972 ft 475 kts 38°
2026-05-07 16:53 53.08041 9.59063 44232 ft 475 kts 38°
2026-05-07 16:53 53.10609 9.62508 44476 ft 474 kts 38°
2026-05-07 16:54 53.13174 9.65956 44717 ft 474 kts 38°
2026-05-07 16:54 53.15742 9.69410 44928 ft 474 kts 38°
2026-05-07 16:54 53.18304 9.72865 45074 ft 476 kts 38°
2026-05-07 16:55 53.23489 9.79870 45075 ft 482 kts 38°
2026-05-07 16:55 53.28713 9.86953 45092 ft 485 kts 38°
2026-05-07 16:56 53.33955 9.94082 45099 ft 485 kts 38°
2026-05-07 16:56 53.41757 10.04735 45109 ft 480 kts 38°
2026-05-07 16:57 53.46907 10.11797 45094 ft 476 kts 38°
2026-05-07 16:57 53.52016 10.18824 45091 ft 473 kts 38°
2026-05-07 16:58 53.57089 10.25826 45092 ft 471 kts 38°
2026-05-07 16:58 53.62139 10.32817 45085 ft 469 kts 38°
2026-05-07 16:59 53.67174 10.39809 45090 ft 468 kts 38°
2026-05-07 16:59 53.72197 10.46808 45092 ft 468 kts 38°
2026-05-07 17:00 53.77235 10.53845 45101 ft 473 kts 38°
2026-05-07 17:00 53.82330 10.60993 45109 ft 479 kts 38°
2026-05-07 17:01 53.87475 10.68232 45113 ft 482 kts 38°
2026-05-07 17:01 53.92611 10.75481 45117 ft 485 kts 38°
2026-05-07 17:02 53.97831 10.82875 45111 ft 486 kts 39°
2026-05-07 17:02 54.03025 10.90256 45115 ft 487 kts 39°
2026-05-07 17:03 54.08219 10.97663 45110 ft 487 kts 39°
2026-05-07 17:03 54.13376 11.05041 45113 ft 488 kts 39°
2026-05-07 17:04 54.18569 11.12495 45118 ft 488 kts 39°
2026-05-07 17:04 54.23383 11.20651 45113 ft 489 kts 47°
2026-05-07 17:05 54.27978 11.29233 45118 ft 489 kts 46°
2026-05-07 17:05 54.32554 11.37847 45116 ft 489 kts 47°
2026-05-07 17:06 54.36388 11.45085 45122 ft 489 kts 47°
2026-05-07 17:06 54.40939 11.53663 45125 ft 489 kts 47°
2026-05-07 17:07 54.45503 11.62303 45117 ft 487 kts 47°
2026-05-07 17:07 54.50045 11.70919 45117 ft 485 kts 47°
2026-05-07 17:08 54.54569 11.79518 45116 ft 484 kts 47°
2026-05-07 17:08 54.59078 11.88128 45119 ft 484 kts 47°
2026-05-07 17:09 54.64245 11.95428 45117 ft 480 kts 28°
2026-05-07 17:09 54.70152 12.00743 45120 ft 478 kts 25°
2026-05-07 17:10 54.76054 12.06057 45122 ft 478 kts 25°
2026-05-07 17:10 54.81964 12.11365 45130 ft 478 kts 25°
2026-05-07 17:11 54.87869 12.16704 45133 ft 478 kts 25°
2026-05-07 17:11 54.93774 12.22052 45133 ft 479 kts 25°
2026-05-07 17:12 54.99673 12.27417 45135 ft 478 kts 25°
2026-05-07 17:12 55.05573 12.32798 45136 ft 478 kts 25°
2026-05-07 17:13 55.11465 12.38192 45137 ft 478 kts 26°
2026-05-07 17:13 55.17353 12.43599 45139 ft 478 kts 26°
2026-05-07 17:14 55.23196 12.49167 45130 ft 479 kts 32°
2026-05-07 17:14 55.28742 12.55647 45140 ft 479 kts 32°
2026-05-07 17:15 55.34306 12.62089 45141 ft 479 kts 32°
2026-05-07 17:15 55.39855 12.68591 45141 ft 479 kts 32°
2026-05-07 17:16 55.45408 12.75088 45140 ft 479 kts 32°
2026-05-07 17:16 55.50953 12.81615 45144 ft 479 kts 32°
2026-05-07 17:17 55.56442 12.88090 45140 ft 479 kts 32°
2026-05-07 17:17 55.61980 12.94649 45142 ft 479 kts 32°
2026-05-07 17:18 55.67516 13.01226 45141 ft 479 kts 32°
2026-05-07 17:18 55.73054 13.07831 45129 ft 479 kts 32°
2026-05-07 17:19 55.78587 13.14450 45128 ft 480 kts 32°
2026-05-07 17:19 55.84113 13.21087 45126 ft 480 kts 32°
2026-05-07 17:20 55.89644 13.27750 45119 ft 480 kts 32°
2026-05-07 17:20 55.95167 13.34429 45117 ft 480 kts 32°
2026-05-07 17:21 56.00687 13.41126 45118 ft 480 kts 32°
2026-05-07 17:21 56.06203 13.47843 45120 ft 480 kts 32°
2026-05-07 17:22 56.11717 13.54581 45119 ft 480 kts 32°
2026-05-07 17:22 56.17225 13.61336 45121 ft 480 kts 32°
2026-05-07 17:23 56.22731 13.68111 45116 ft 480 kts 32°
2026-05-07 17:23 56.28166 13.74824 45115 ft 480 kts 33°
2026-05-07 17:24 56.33723 13.81711 45110 ft 480 kts 33°
2026-05-07 17:24 56.39209 13.88535 45111 ft 480 kts 33°
2026-05-07 17:25 56.44704 13.95394 45108 ft 480 kts 33°
2026-05-07 17:25 56.50192 14.02269 45105 ft 480 kts 33°
2026-05-07 17:26 56.55639 14.09117 45105 ft 480 kts 33°
2026-05-07 17:26 56.61115 14.16027 45100 ft 480 kts 33°
2026-05-07 17:27 56.66591 14.22961 45097 ft 480 kts 33°
2026-05-07 17:27 56.72063 14.29916 45099 ft 480 kts 33°
2026-05-07 17:28 56.77529 14.36886 45092 ft 480 kts 33°
2026-05-07 17:28 56.82990 14.43878 45086 ft 480 kts 33°
2026-05-07 17:29 56.88455 14.50900 45087 ft 480 kts 33°
2026-05-07 17:29 56.93910 14.57933 45086 ft 480 kts 33°
2026-05-07 17:30 56.99362 14.64989 45085 ft 480 kts 33°
2026-05-07 17:30 57.04811 14.72067 45088 ft 480 kts 33°
2026-05-07 17:31 57.10256 14.79166 45090 ft 480 kts 33°
2026-05-07 17:31 57.15696 14.86284 45088 ft 480 kts 33°
2026-05-07 17:32 57.21133 14.93425 45088 ft 480 kts 33°
2026-05-07 17:32 57.25645 14.99371 45088 ft 480 kts 33°
2026-05-07 17:33 57.31991 15.07764 45095 ft 480 kts 33°
2026-05-07 17:33 57.37322 15.14967 45096 ft 480 kts 36°
2026-05-07 17:34 57.42686 15.22588 45092 ft 480 kts 35°
2026-05-07 17:34 57.47949 15.30093 45096 ft 480 kts 36°
2026-05-07 17:35 57.53241 15.37681 45101 ft 480 kts 36°
2026-05-07 17:35 57.58524 15.45266 45106 ft 480 kts 36°
2026-05-07 17:36 57.63813 15.52915 45109 ft 480 kts 36°
2026-05-07 17:36 57.69096 15.60564 45114 ft 480 kts 36°
2026-05-07 17:37 57.74370 15.68247 45116 ft 480 kts 36°
2026-05-07 17:37 57.79643 15.75945 45126 ft 480 kts 36°
2026-05-07 17:38 57.84910 15.83671 45122 ft 480 kts 36°
2026-05-07 17:38 57.90172 15.91416 45128 ft 481 kts 36°
2026-05-07 17:39 57.95432 15.99187 45126 ft 481 kts 36°
2026-05-07 17:39 58.00689 16.06982 45130 ft 481 kts 36°
2026-05-07 17:40 58.05929 16.14781 45117 ft 479 kts 36°
2026-05-07 17:40 58.11155 16.22590 45123 ft 479 kts 36°
2026-05-07 17:41 58.16331 16.30354 45123 ft 479 kts 36°
2026-05-07 17:41 58.21594 16.38279 45129 ft 479 kts 36°
2026-05-07 17:42 58.26755 16.46153 45128 ft 479 kts 40°
2026-05-07 17:42 58.31052 16.55852 45124 ft 482 kts 52°
2026-05-07 17:43 58.35057 16.66099 45129 ft 482 kts 52°
2026-05-07 17:43 58.39052 16.76357 45134 ft 482 kts 52°
2026-05-07 17:44 58.43032 16.86634 45140 ft 482 kts 52°
2026-05-07 17:44 58.47008 16.96929 45141 ft 482 kts 52°
2026-05-07 17:45 58.50978 17.07265 45140 ft 482 kts 52°
2026-05-07 17:45 58.54939 17.17616 45145 ft 482 kts 52°
2026-05-07 17:46 58.58890 17.27991 45141 ft 482 kts 52°
2026-05-07 17:46 58.62865 17.38331 45144 ft 481 kts 49°
2026-05-07 17:47 58.67589 17.47372 45143 ft 479 kts 39°
2026-05-07 17:47 58.72399 17.56254 45146 ft 481 kts 46°
2026-05-07 17:48 58.76948 17.65703 45145 ft 480 kts 43°
2026-05-07 17:48 58.81659 17.74764 45145 ft 481 kts 44°
2026-05-07 17:49 58.86283 17.84178 45145 ft 481 kts 44°
2026-05-07 17:49 58.90944 17.93405 45143 ft 482 kts 44°
2026-05-07 17:50 58.95564 18.02760 45144 ft 482 kts 44°
2026-05-07 17:50 59.00213 18.12118 45143 ft 482 kts 44°
2026-05-07 17:51 59.04843 18.21526 45141 ft 482 kts 44°
2026-05-07 17:51 59.09477 18.30956 45141 ft 482 kts 44°
2026-05-07 17:52 59.14098 18.40411 45156 ft 482 kts 44°
2026-05-07 17:52 59.17970 18.48363 45143 ft 482 kts 44°
2026-05-07 17:53 59.22579 18.57861 45151 ft 482 kts 45°
2026-05-07 17:53 59.27182 18.67388 45149 ft 482 kts 45°
2026-05-07 17:54 59.31742 18.76869 45150 ft 482 kts 45°
2026-05-07 17:54 59.36326 18.86436 45151 ft 481 kts 45°
2026-05-07 17:55 59.40902 18.96028 45155 ft 481 kts 45°
2026-05-07 17:55 59.45470 19.05645 45156 ft 481 kts 45°
2026-05-07 17:56 59.50028 19.15281 45171 ft 481 kts 45°
2026-05-07 17:56 59.54579 19.24945 45160 ft 481 kts 45°
2026-05-07 17:57 59.59124 19.34636 45165 ft 481 kts 45°
2026-05-07 17:57 59.63657 19.44343 45160 ft 481 kts 45°
2026-05-07 17:58 59.68167 19.54124 45156 ft 481 kts 47°
2026-05-07 17:58 59.72382 19.64454 45159 ft 482 kts 49°
2026-05-07 17:59 59.76741 19.74512 45159 ft 481 kts 47°
2026-05-07 17:59 59.80991 19.84704 45161 ft 475 kts 49°
2026-05-07 18:00 59.85217 19.94712 45150 ft 470 kts 48°
2026-05-07 18:00 59.89385 20.04695 45148 ft 467 kts 49°
2026-05-07 18:01 59.91466 20.09701 44824 ft 473 kts 48°
2026-05-07 18:01 59.93589 20.14785 44242 ft 480 kts 48°
2026-05-07 18:01 59.95692 20.19843 43668 ft 485 kts 49°
2026-05-07 18:01 59.97882 20.25141 43087 ft 486 kts 49°
2026-05-07 18:02 60.02145 20.35473 42002 ft 484 kts 48°
2026-05-07 18:02 60.04288 20.40677 41475 ft 484 kts 48°
2026-05-07 18:02 60.06425 20.45884 40954 ft 484 kts 48°
2026-05-07 18:03 60.08557 20.51096 40443 ft 483 kts 48°
2026-05-07 18:03 60.10689 20.56314 39952 ft 483 kts 48°
2026-05-07 18:03 60.12814 20.61524 39466 ft 483 kts 48°
2026-05-07 18:03 60.14936 20.66741 38996 ft 483 kts 48°
2026-05-07 18:04 60.17060 20.71975 38444 ft 483 kts 48°
2026-05-07 18:04 60.19180 20.77211 37860 ft 483 kts 48°
2026-05-07 18:04 60.21299 20.82456 37294 ft 483 kts 47°
2026-05-07 18:04 60.23413 20.87701 36748 ft 482 kts 47°
2026-05-07 18:05 60.25520 20.92940 36217 ft 482 kts 47°
2026-05-07 18:05 60.27610 20.98150 35693 ft 482 kts 47°
2026-05-07 18:05 60.29730 21.03445 35173 ft 481 kts 46°
2026-05-07 18:05 60.31830 21.08702 34669 ft 481 kts 46°
2026-05-07 18:06 60.33921 21.13950 34166 ft 480 kts 46°
2026-05-07 18:06 60.36012 21.19207 33582 ft 480 kts 46°
2026-05-07 18:06 60.38096 21.24460 33000 ft 479 kts 46°
2026-05-07 18:06 60.40180 21.29725 32431 ft 479 kts 46°
2026-05-07 18:07 60.42257 21.34984 31869 ft 479 kts 46°
2026-05-07 18:07 60.44317 21.40213 31324 ft 479 kts 46°
2026-05-07 18:07 60.46393 21.45493 30788 ft 478 kts 45°
2026-05-07 18:07 60.48448 21.50742 30263 ft 474 kts 45°
2026-05-07 18:08 60.50491 21.55967 29636 ft 470 kts 45°
2026-05-07 18:08 60.52518 21.61152 29011 ft 467 kts 45°
2026-05-07 18:08 60.54533 21.66319 28407 ft 465 kts 46°
2026-05-07 18:08 60.56530 21.71458 27813 ft 462 kts 46°
2026-05-07 18:09 60.58518 21.76585 27234 ft 460 kts 46°
2026-05-07 18:09 60.60493 21.81690 26664 ft 458 kts 46°
2026-05-07 18:09 60.62460 21.86781 26101 ft 456 kts 46°
2026-05-07 18:09 60.64418 21.91862 25562 ft 455 kts 46°
2026-05-07 18:10 60.66363 21.96924 25027 ft 453 kts 46°
2026-05-07 18:10 60.68303 22.01980 24498 ft 452 kts 46°
2026-05-07 18:10 60.70234 22.07027 23980 ft 449 kts 46°
2026-05-07 18:10 60.72139 22.12015 23420 ft 443 kts 46°
2026-05-07 18:11 60.74021 22.16951 22806 ft 437 kts 46°
2026-05-07 18:11 60.75248 22.20177 22402 ft 434 kts 46°
2026-05-07 18:11 60.77712 22.26665 21609 ft 429 kts 46°
2026-05-07 18:11 60.79532 22.31469 21025 ft 425 kts 46°
2026-05-07 18:12 60.81333 22.36235 20468 ft 421 kts 46°
2026-05-07 18:12 60.83110 22.40951 19904 ft 415 kts 46°
2026-05-07 18:12 60.84860 22.45603 19353 ft 410 kts 46°
2026-05-07 18:12 60.86591 22.50206 18812 ft 405 kts 46°
2026-05-07 18:13 60.88305 22.54774 18257 ft 401 kts 46°
2026-05-07 18:13 60.89967 22.59220 17659 ft 396 kts 47°
2026-05-07 18:13 60.91626 22.63668 17049 ft 388 kts 47°
2026-05-07 18:13 60.93249 22.68021 16464 ft 380 kts 47°
2026-05-07 18:14 60.94819 22.72238 15892 ft 373 kts 47°
2026-05-07 18:14 60.96382 22.76444 15320 ft 367 kts 48°
2026-05-07 18:14 60.97912 22.80575 14761 ft 358 kts 48°
2026-05-07 18:14 60.99389 22.84574 14400 ft 344 kts 48°
2026-05-07 18:15 61.00825 22.88453 14076 ft 338 kts 49°
2026-05-07 18:15 61.02230 22.92255 13734 ft 333 kts 49°
2026-05-07 18:15 61.03621 22.96034 13381 ft 329 kts 49°
2026-05-07 18:15 61.04993 22.99767 13029 ft 325 kts 49°
2026-05-07 18:16 61.06291 23.03305 12700 ft 322 kts 49°
2026-05-07 18:16 61.07637 23.06977 12361 ft 320 kts 49°
2026-05-07 18:16 61.08973 23.10625 12024 ft 317 kts 50°
2026-05-07 18:16 61.10296 23.14249 11701 ft 315 kts 50°
2026-05-07 18:17 61.11506 23.17567 11397 ft 310 kts 50°
2026-05-07 18:17 61.12789 23.21096 11074 ft 304 kts 50°
2026-05-07 18:17 61.14052 23.24567 10747 ft 299 kts 50°
2026-05-07 18:17 61.15293 23.27982 10427 ft 294 kts 50°
2026-05-07 18:18 61.16513 23.31345 10118 ft 290 kts 51°
2026-05-07 18:18 61.17718 23.34673 9787 ft 287 kts 51°
2026-05-07 18:18 61.18896 23.37936 9406 ft 279 kts 51°
2026-05-07 18:18 61.20045 23.41117 8992 ft 273 kts 51°
2026-05-07 18:19 61.21174 23.44249 8587 ft 269 kts 51°
2026-05-07 18:19 61.22275 23.47305 8192 ft 266 kts 51°
2026-05-07 18:19 61.23388 23.50397 7796 ft 263 kts 51°
2026-05-07 18:19 61.24475 23.53427 7406 ft 261 kts 51°
2026-05-07 18:20 61.25553 23.56433 7115 ft 255 kts 51°
2026-05-07 18:20 61.26577 23.59298 7106 ft 240 kts 51°
2026-05-07 18:20 61.27556 23.62031 7098 ft 234 kts 51°
2026-05-07 18:20 61.28525 23.64736 7015 ft 235 kts 51°
2026-05-07 18:21 61.29535 23.67559 6595 ft 250 kts 51°
2026-05-07 18:21 61.30572 23.70469 6178 ft 258 kts 52°
2026-05-07 18:21 61.31629 23.73447 5772 ft 255 kts 51°
2026-05-07 18:21 61.32717 23.76300 5276 ft 245 kts 46°
2026-05-07 18:22 61.33972 23.78597 4769 ft 236 kts 30°
2026-05-07 18:22 61.34923 23.79576 4630 ft 222 kts 18°
2026-05-07 18:22 61.36860 23.79575 4052 ft 210 kts 340°
2026-05-07 18:22 61.38275 23.78579 3332 ft 217 kts 337°
2026-05-07 18:23 61.39604 23.77557 2805 ft 197 kts 335°
2026-05-07 18:23 61.40827 23.76412 2358 ft 183 kts 333°
2026-05-07 18:23 61.41920 23.75234 2008 ft 173 kts 327°
2026-05-07 18:23 61.42820 23.73782 1753 ft 153 kts 309°
2026-05-07 18:24 61.43317 23.71962 1472 ft 143 kts 291°
2026-05-07 18:24 61.43403 23.69893 1091 ft 143 kts 265°
2026-05-07 18:24 61.43123 23.67901 883 ft 144 kts 246°
2026-05-07 18:24 61.42687 23.66075 732 ft 136 kts 250°
2026-05-07 18:25 61.42290 23.64274 559 ft 137 kts 248°
2026-05-07 18:25 61.41883 23.62490 387 ft 133 kts 248°
2026-05-07 18:25 61.41524 23.60909 380 ft 103 kts 244°
2026-05-07 18:25 61.41295 23.59908 384 ft 67 kts 244°
2026-05-07 18:26 61.41152 23.59288 388 ft 14 kts 242°
2026-05-07 18:26 61.41082 23.59201 389 ft 13 kts 167°
2026-05-07 18:26 61.41011 23.59267 390 ft 8 kts 154°
2026-05-07 18:26 61.40982 23.59310 390 ft 8 kts 124°
2026-05-07 18:27 61.40975 23.59478 391 ft 15 kts 84°
2026-05-07 18:27 61.40964 23.59755 383 ft 25 kts 102°
2026-05-07 18:27 61.40881 23.60125 381 ft 31 kts 128°
2026-05-07 18:27 61.40773 23.60345 381 ft 34 kts 136°
2026-05-07 18:28 61.40727 23.60955 381 ft 32 kts 90°
2026-05-07 18:28 61.40723 23.61392 381 ft 23 kts 61°
2026-05-07 18:28 61.40793 23.61549 381 ft 12 kts 41°
2026-05-07 18:28 61.40835 23.61668 381 ft 8 kts 68°
2026-05-07 18:29 61.40854 23.61765 381 ft 7 kts 74°
2026-05-07 18:29 61.40814 23.61843 381 ft 8 kts 138°
2026-05-07 18:29 61.40813 23.61867 381 ft 0 kts 40°